Regional Weather Roundup
Issued by NWS Lake Charles, LA

Home | Current Version | Previous Version | Text Only | Print | Product List | Glossary On
Versions: 1 2 3 4 5 6 7 8 9 10 11 12 13 14 15 16 17 18 19 20 21 22 23 24 25 26 27 28 29 30 31 32 33 34 35 36 37 38 39 40 41 42 43 44 45 46 47
000
ASUS44 KLCH 011213
RWRLCH
RWRLCH
REGIONAL WEATHER ROUNDUP
NATIONAL WEATHER SERVICE LAKE CHARLES LA
700 AM CDT SAT AUG 01 2015

Note: "fair" indicates few or no clouds below 12,000 feet with no
significant weather and/or obstructions to visibility.


ACROSS SOUTHEAST TEXAS

CITY           SKY/WX    TMP DP  RH WIND       PRES   REMARKS
BEAUMONT       CLEAR     75  66  73 NE10      29.93S
BEAUMONT CITY    N/A     73  65  75 NE6       29.95R
ORANGE         SUNNY     71  63  74 CALM      29.96R
JASPER         CLEAR     76  67  71 NE3       29.99S
$$

ACROSS CENTRAL LOUISIANA

CITY           SKY/WX    TMP DP  RH WIND       PRES   REMARKS
LEESVILLE      CLEAR     74  65  74 N7        29.96S
FULLERTON        N/A     72  65  78 CALM      29.96R
ALEXANDRIA INT CLEAR     73  67  81 N7        29.95S
ESLER FIELD    CLEAR     74  66  76 N3        29.97S
DERIDDER         N/A     73  66  76 CALM      29.98S
OAKDALE        SUNNY     71  67  87 N3        29.96R
OPELOUSAS        N/A     71  67  88 N5        29.94R
$$

ACROSS SOUTHWEST AND SOUTH CENTRAL LOUISIANA

CITY           SKY/WX    TMP DP  RH WIND       PRES   REMARKS
SULPHUR        SUNNY     75  65  71 N3        29.95R
LAKE CHARLES   CLEAR     75  66  73 NE9       29.94R
CHENNAULT INT  CLEAR     72  66  83 N6        29.95R
CAMERON PHI    SUNNY     73  68  83 NE9       29.96R
DEQUINCY         N/A     70  66  85 CALM      29.96R
JENNINGS         N/A     72  67  86 N3        29.94R
LAFAYETTE      CLEAR     72  67  84 NE7       29.93R
NEW IBERIA     CLEAR     73  66  78 N8        29.93R
ABBEVILLE        N/A     72  66  81 N3        29.93R
PATTERSON      CLEAR     73  66  78 NE3       29.93R
SALT POINT       N/A     74  69  85 MISG      29.89R
$$

SELECTED SITES ACROSS THE REGION

CITY           SKY/WX    TMP DP  RH WIND       PRES   REMARKS
HOUSTON BUSH   PTCLDY    74  65  73 N5        29.96R
HOUSTON HOBBY  MOCLDY    78  64  61 NE8       29.93R
GALVESTON      CLEAR     81  68  64 NE12      29.93R
COLLEGE STAT   CLEAR     75  62  64 NE8       29.98F
CONROE         CLEAR     70  64  81 N3        29.98R
HUNTSVILLE     CLEAR     69  65  86 CALM      29.99R
LUFKIN         CLEAR     72  64  76 N5        29.99S
SHREVEPORT     PTCLDY    74  64  71 CALM      30.01S
MONROE         CLEAR     71  67  87 N5        30.01R
NATCHEZ MS     CLEAR     68  64  88 N3        29.98S
BATON ROUGE    CLEAR     73  63  70 MISG      29.93R
N.O. INTL ARPT PTCLDY    81  64  56 NE15      29.89R
SLIDELL        CLEAR     69  67  93 N5        29.89R
$$

MARINE REPORTS

STATION/POSITION TIME  TEMP    WIND        PRES    VSBY  WAVE
                       AIR SEA DIR/SP/G                  HT/PER
                 (UTC) (F)     (DEG/KT/KT) (MB)    (MI)  (FT/S)
BUOY 30 S HIGH I 1150   83 86   30/ 14/ 16 1012.6R         2/ 4
SEA RIM ST PARK  1200   76      50/  6/  8 1014.0R
PORT ARTHUR      1100      88   40/  1/  5 1013.5R
SABINE PASS N    1100   74 88   30/  8/  9 1013.4R
TEXAS POINT      NOT AVBL
CALCASIEU PASS   1100   75 86   60/ 10/ 12 1012.0R
LK CHARLES BEACH 1100   75 88                N/A
MARSH ISLAND     1100   82      60/ 16/ 19   N/A           0
FRESH WATER LOCK 1100   75 88   40/  5/  7 1012.4R
AMERADA PASS     1100   76 86   20/  2/  4 1011.7R
$$


USA.gov is the U.S. government's official web portal to all federal, state and local government web resources and services.